DW5444 Weather Reports


time (UTC)temp
F
wind
direction
speed
knots
gust
knots
rain 1hr
in
rain 24hr
in
rain mn
in
humidity
%
barometer
mb
20260902071550 53 248 5.2 9.6 0.00 0.00 0.00 76 1007.8
20260902070046 54 222 7.0 10.4 0.00 0.00 0.00 75 1007.7
20260902064550 54 244 6.1 10.4 0.00 0.00 0.00 75 1007.7
20260902063051 54 192 7.0 11.3 0.00 0.00 0.00 74 1007.6
20260902061556 54 229 5.2 8.7 0.00 0.00 0.00 74 1007.6
20260902060041 55 229 7.0 11.3 0.00 0.00 0.00 72 1007.5
20260902054547 55 211 7.0 10.4 0.00 0.00 0.00 72 1007.5
20260902053044 55 237 5.2 12.2 0.00 0.00 0.00 71 1007.4
20260902051538 56 230 7.0 9.6 0.00 0.00 0.00 70 1007.4
20260902050035 56 234 7.0 9.6 0.00 0.00 0.00 69 1007.5
20260902044532 56 246 7.0 9.6 0.00 0.00 0.00 68 1007.3
20260902043030 57 236 6.1 10.4 0.00 0.00 0.00 66 1007.0
20260902041529 57 251 10.4 14.8 0.00 0.00 0.00 65 1006.8
20260902040032 58 268 11.3 15.6 0.00 0.00 0.00 64 1006.6
20260902034527 59 261 13.9 20.9 0.00 0.00 0.00 62 1006.4
20260902033024 59 244 10.4 17.4 0.00 0.00 0.00 60 1006.1
20260902031523 59 249 10.4 13.9 0.00 0.00 0.00 59 1005.9
20260902030021 60 254 7.0 13.9 0.00 0.00 0.00 57 1005.7
20260902024521 61 256 6.1 9.6 0.00 0.00 0.00 55 1005.6
20260902023020 62 260 6.1 10.4 0.00 0.00 0.00 54 1005.5
20260902021520 63 247 7.0 11.3 0.00 0.00 0.00 52 1005.2
20260902020021 64 247 6.1 9.6 0.00 0.00 0.00 51 1004.9
20260902014531 65 257 5.2 9.6 0.00 0.00 0.00 50 1004.9
20260902013018 66 257 6.1 8.7 0.00 0.00 0.00 49 1004.5
20260902011534 67 282 7.0 13.9 0.00 0.00 0.00 48 1004.5
20260902010015 69 267 8.7 14.8 0.00 0.00 0.00 44 1004.2
20260902004514 71 275 8.7 13.9 0.00 0.00 0.00 39 1004.1
20260902003014 72 274 8.7 13.0 0.00 0.00 0.00 33 1004.1
20260902001515 73 296 8.7 14.8 0.00 0.00 0.00 35 1004.1
20260902000013 74 282 7.8 13.0 0.00 0.00 0.00 33 1004.1
20260901234512 75 270 7.0 13.0 0.00 0.00 0.00 33 1003.9
20260901233011 76 279 7.0 15.6 0.00 0.00 0.00 31 1004.0
20260901231511 77 261 7.0 13.0 0.00 0.00 0.00 31 1003.9
20260901230009 76 263 7.0 14.8 0.00 0.00 0.00 32 1004.0
20260901224512 76 279 9.6 14.8 0.00 0.00 0.00 33 1004.0
20260901223011 76 292 5.2 13.9 0.00 0.00 0.00 33 1004.0
20260901221505 76 301 7.0 13.9 0.00 0.00 0.00 35 1004.2
20260901220004 76 292 5.2 13.9 0.00 0.00 0.00 35 1004.3
20260901214508 76 264 6.1 13.0 0.00 0.00 0.00 35 1004.4
20260901213000 75 237 7.8 14.8 0.00 0.00 0.00 36 1004.6
20260901211559 75 281 7.0 13.9 0.00 0.00 0.00 36 1004.7
20260901210114 75 277 6.1 13.9 0.00 0.00 0.00 36 1004.9
20260901204555 74 281 7.8 13.9 0.00 0.00 0.00 37 1004.9
20260901203052 74 303 7.0 13.9 0.00 0.00 0.00 39 1005.0
20260901201549 73 265 7.0 11.3 0.00 0.00 0.00 39 1005.3
20260901200048 73 285 6.1 9.6 0.00 0.00 0.00 38 1005.5
20260901194552 72 257 6.1 11.3 0.00 0.00 0.00 40 1005.7
20260901193045 72 263 7.8 12.2 0.00 0.00 0.00 41 1005.7
20260901191549 70 277 5.2 8.7 0.00 0.00 0.00 42 1006.1
20260901190050 70 263 7.8 11.3 0.00 0.00 0.00 42 1006.0
20260901184539 69 268 7.8 10.4 0.00 0.00 0.00 44 1005.8
20260901183058 67 265 6.1 10.4 0.00 0.00 0.00 48 1006.1
20260901181532 67 258 6.1 12.2 0.00 0.00 0.00 48 1006.0
20260901180031 67 257 7.0 10.4 0.00 0.00 0.00 48 1005.9
20260901174531 67 267 7.0 11.3 0.00 0.00 0.00 47 1005.7
20260901173036 67 257 7.8 12.2 0.00 0.00 0.00 46 1005.6
20260901171525 66 233 7.8 10.4 0.00 0.00 0.00 46 1006.1
20260901170024 66 225 2.6 7.8 0.00 0.00 0.00 45 1006.2
20260901164521 65 211 6.1 8.7 0.00 0.00 0.00 47 1007.1
20260901163020 64 213 4.3 7.8 0.00 0.00 0.00 47 1006.6
20260901161518 64 223 6.1 9.6 0.00 0.00 0.00 49 1006.8
20260901160023 64 251 6.1 7.8 0.00 0.00 0.00 45 1006.0
20260901154513 64 239 4.3 7.0 0.00 0.00 0.00 45 1006.0
20260901153023 64 219 2.6 5.2 0.00 0.00 0.00 43 1006.2
20260901151510 64 192 1.7 3.5 0.00 0.00 0.00 44 1006.1
20260901150015 63 177 1.7 4.3 0.00 0.00 0.00 44 1006.1
20260901144503 62 149 1.7 3.5 0.00 0.00 0.00 45 1005.9
20260901143101 61 130 1.7 3.5 0.00 0.00 0.00 46 1005.7
20260901141603 60 128 1.7 3.5 0.00 0.00 0.00 46 1005.8
20260901140058 0 0.0 0.0 0.00 0.00 0.00 1005.6
20260901134550 0 0.0 0.0 0.00 0.00 0.00 1005.5
20260901133050 0 0.0 0.0 0.00 0.00 0.00 1005.5
20260901131543 0 0.0 0.0 0.00 0.00 0.00 1005.4
20260901130038 0 0.0 0.0 0.00 0.00 0.00 1005.4
20260901124541 0 0.0 0.0 0.00 0.00 0.00 1005.3
20260901123028 0 0.0 0.0 0.00 0.00 0.00 1005.3
20260901121523 0 0.0 0.0 0.00 0.00 0.00 1005.4
20260901120021 56 66 1.7 2.6 0.00 0.00 0.00 51 1005.4
20260901114520 56 81 2.6 3.5 0.00 0.00 0.00 52 1005.3
20260901113020 58 80 2.6 2.6 0.00 0.00 0.00 48 1005.3
20260901111518 59 77 1.7 2.6 0.00 0.00 0.00 48 1005.3
20260901110017 59 83 1.7 2.6 0.00 0.00 0.00 48 1005.4
20260901104516 59 83 1.7 2.6 0.00 0.00 0.00 47 1005.5
20260901103016 58 77 1.7 2.6 0.00 0.00 0.00 49 1005.6
20260901101513 58 86 1.7 1.7 0.00 0.00 0.00 50 1005.6
20260901100012 56 81 1.7 2.6 0.00 0.00 0.00 51 1005.7
20260901094516 57 69 0.9 2.6 0.00 0.00 0.00 50 1005.9
20260901093009 58 72 1.7 2.6 0.00 0.00 0.00 50 1006.0
20260901091507 57 76 2.6 3.5 0.00 0.00 0.00 51 1006.1
20260901090007 57 82 2.6 3.5 0.00 0.00 0.00 50 1006.1
20260901084506 56 79 1.7 2.6 0.00 0.00 0.00 51 1006.2
20260901083006 55 81 1.7 2.6 0.00 0.00 0.00 52 1006.2
20260901081503 55 72 1.7 2.6 0.00 0.00 0.00 53 1006.2
20260901080002 54 69 0.9 2.6 0.00 0.00 0.00 53 1006.3
20260901074559 56 83 1.7 2.6 0.00 0.00 0.00 51 1006.3
20260901073055 57 83 2.6 2.6 0.00 0.00 0.00 49 1006.4